QPF
0.00 0.00 0.00 0.00 0.00 0.00 0.00 0.00 0.00 0.00 0.00 0.00 0.00 0.00 0.00 0.00 0.00 0.00 0.00 0.00 0.00 0.00 0.00 0.00 0.00 0.00 0.00 0.00 0.00 0.00 0.00 0.00 0.00 0.00 0.00 0.00 0.00 0.00 0.00 0.00 0.00 0.00 0.00
0.00 0.00 0.00 0.00 0.00 0.00 0.00 0.00 0.00 0.00 0.00 0.00 0.00 0.00 0.00 0.00 0.00 0.00 0.00 0.00 0.00 0.00 0.00 0.00 0.00 0.00 0.00 0.00 0.00 0.00 0.00 0.00 0.00 0.00 0.00 0.00 0.00 0.00 0.00 0.00 0.00 0.00 0.00
0.00 0.00 0.00 0.00 0.00 0.00 0.00 0.00 0.00 0.00 0.00 0.00 0.00 0.00 0.00 0.00 0.00 0.00 0.00 0.00 0.00 0.00 0.00 0.00 0.00 0.00 0.00 0.00 0.00 0.00 0.00 0.00 0.00 0.00 0.00 0.00 0.00 0.00 0.00 0.00 0.00 0.00 0.00
0.00 0.00 0.00 0.00 0.00 0.00 0.00 0.00 0.00 0.00 0.00 0.00 0.00 0.00 0.00 0.00 0.00 0.00 0.00 0.00 0.00 0.00 0.00 0.00 0.00 0.00 0.00 0.00 0.00 0.00 0.00 0.00 0.00 0.00 0.00 0.00 0.00 0.00 0.00 0.00 0.00 0.00 0.00
0.00 0.00 0.00 0.00 0.00 0.00 0.00 0.00 0.00 0.00 0.00 0.00 0.00 0.00 0.00 0.00 0.00 0.00 0.00 0.00 0.00 0.00 0.00 0.00 0.00 0.00 0.00 0.00 0.00 0.00 0.00 0.00 0.00 0.00 0.00 0.00 0.00 0.00 0.00 0.00 0.00 0.00 0.00
0.00 0.00 0.00 0.00 0.00 0.00 0.00 0.00 0.00 0.00 0.00 0.00 0.00 0.00 0.00 0.00 0.00 0.00 0.00 0.00 0.00 0.00 0.00 0.00 0.00 0.00 0.00 0.00 0.00 0.00 0.00 0.00 0.00 0.00 0.00 0.00 0.00 0.00 0.00 0.00 0.00 0.00 0.00
0.00 0.00 0.00 0.00 0.00 0.00 0.00 0.00 0.00 0.00 0.00 0.00 0.00 0.00 0.00 0.00 0.00 0.00 0.00 0.00 0.00 0.00 0.00 0.00 0.00 0.00 0.00 0.00 0.00 0.00 0.00 0.00 0.00 0.00 0.00 0.00 0.00 0.00 0.00 0.00 0.00 0.00 0.00
0.00 0.00 0.00 0.00 0.00 0.00 0.00 0.00 0.00 0.00 0.00 0.00 0.00 0.00 0.00 0.00 0.00 0.00 0.00 0.00 0.00 0.00 0.00 0.00 0.00 0.00 0.00 0.00 0.00 0.00 0.00 0.00 0.00 0.00 0.00 0.00 0.00 0.00 0.00 0.00 0.00 0.00 0.00
0.00 0.00 0.00 0.00 0.00 0.00 0.00 0.00 0.00 0.00 0.00 0.00 0.00 0.00 0.00 0.00 0.00 0.00 0.00 0.00 0.00 0.00 0.01 0.01 0.00 0.00 0.00 0.00 0.00 0.00 0.00 0.00 0.00 0.00 0.00 0.00 0.00 0.00 0.00 0.00 0.00 0.00 0.00
0.00 0.00 0.00 0.00 0.00 0.00 0.00 0.00 0.00 0.00 0.00 0.00 0.00 0.00 0.00 0.00 0.00 0.00 0.00 0.00 0.00 0.00 0.00 0.00 0.00 0.00 0.00 0.00 0.00 0.00 0.00 0.00 0.00 0.00 0.00 0.00 0.00 0.00 0.00 0.00 0.00 0.00 0.00
0.00 0.00 0.00 0.00 0.00 0.00 0.00 0.00 0.00 0.00 0.00 0.00 0.00 0.00 0.00 0.00 0.00 0.00 0.00 0.00 0.00 0.00 0.00 0.00 0.00 0.00 0.00 0.00 0.00 0.00 0.00 0.00 0.00 0.00 0.00 0.00 0.00 0.00 0.00 0.00 0.00 0.00 0.00
0.00 0.00 0.00 0.00 0.00 0.00 0.00 0.00 0.00 0.00 0.00 0.00 0.00 0.00 0.00 0.00 0.00 0.00 0.00 0.00 0.00 0.00 0.00 0.00 0.00 0.00 0.00 0.00 0.00 0.00 0.00 0.00 0.00 0.00 0.00 0.00 0.00 0.00 0.00 0.00 0.00 0.00 0.00
0.00 0.00 0.00 0.00 0.00 0.00 0.00 0.00 0.00 0.00 0.00 0.00 0.00 0.00 0.00 0.00 0.00 0.00 0.00 0.00 0.00 0.00 0.00 0.00 0.00 0.00 0.00 0.00 0.00 0.00 0.00 0.00 0.00 0.00 0.00 0.00 0.00 0.00 0.00 0.00 0.00 0.00 0.00
0.00 0.00 0.00 0.00 0.00 0.00 0.00 0.00 0.00 0.00 0.00 0.00 0.00 0.00 0.00 0.00 0.00 0.00 0.00 0.00 0.00 0.00 0.00 0.00 0.00 0.00 0.00 0.00 0.00 0.00 0.00 0.00 0.00 0.00 0.00 0.00 0.00 0.00 0.00 0.00 0.00 0.00 0.00
0.00 0.00 0.00 0.00 0.00 0.00 0.00 0.00 0.00 0.00 0.00 0.00 0.00 0.00 0.00 0.00 0.00 0.00 0.00 0.00 0.00 0.00 0.00 0.00 0.00 0.00 0.00 0.00 0.00 0.00 0.00 0.00 0.00 0.00 0.00 0.00 0.00 0.00 0.00 0.00 0.00 0.00 0.00
0.00 0.00 0.00 0.00 0.00 0.00 0.00 0.00 0.00 0.00 0.00 0.00 0.00 0.00 0.00 0.00 0.00 0.00 0.00 0.00 0.00 0.00 0.00 0.00 0.00 0.00 0.00 0.00 0.00 0.00 0.00 0.00 0.00 0.00 0.00 0.00 0.00 0.00 0.00 0.00 0.00 0.00 0.00
0.00 0.00 0.00 0.00 0.00 0.00 0.00 0.00 0.00 0.00 0.00 0.00 0.00 0.00 0.00 0.00 0.00 0.00 0.00 0.00 0.00 0.00 0.00 0.00 0.00 0.00 0.00 0.00 0.00 0.00 0.00 0.00 0.00 0.00 0.00 0.00 0.00 0.00 0.00 0.00 0.00 0.00 0.00
0.00 0.00 0.00 0.00 0.00 0.00 0.00 0.00 0.00 0.00 0.00 0.00 0.00 0.00 0.00 0.00 0.00 0.00 0.00 0.00 0.00 0.00 0.00 0.00 0.00 0.00 0.00 0.00 0.00 0.00 0.00 0.00 0.00 0.00 0.00 0.00 0.00 0.00 0.00 0.00 0.00 0.00 0.00
0.00 0.00 0.00 0.00 0.00 0.00 0.00 0.00 0.00 0.00 0.00 0.00 0.00 0.00 0.00 0.00 0.00 0.00 0.00 0.00 0.00 0.00 0.00 0.00 0.00 0.00 0.00 0.00 0.00 0.00 0.00 0.00 0.00 0.00 0.00 0.00 0.00 0.00 0.00 0.00 0.00 0.00 0.00
0.00 0.00 0.00 0.00 0.00 0.00 0.00 0.00 0.00 0.00 0.00 0.00 0.00 0.00 0.00 0.00 0.00 0.00 0.00 0.00 0.00 0.00 0.00 0.00 0.00 0.00 0.00 0.00 0.00 0.00 0.00 0.00 0.00 0.00 0.00 0.00 0.00 0.00 0.00 0.00 0.00 0.00 0.00
0.00 0.00 0.00 0.00 0.00 0.00 0.00 0.00 0.00 0.00 0.00 0.00 0.00 0.00 0.00 0.00 0.00 0.00 0.00 0.00 0.00 0.00 0.00 0.00 0.00 0.00 0.00 0.00 0.00 0.00 0.00 0.00 0.00 0.00 0.00 0.00 0.00 0.00 0.00 0.00 0.00 0.00 0.00
0.00 0.00 0.00 0.00 0.00 0.00 0.00 0.00 0.00 0.00 0.00 0.00 0.00 0.00 0.00 0.00 0.00 0.00 0.00 0.00 0.00 0.00 0.00 0.00 0.00 0.00 0.00 0.00 0.00 0.00 0.00 0.00 0.00 0.00 0.00 0.00 0.00 0.00 0.00 0.00 0.00 0.00 0.00
0.00 0.00 0.00 0.00 0.00 0.00 0.00 0.00 0.00 0.00 0.00 0.00 0.00 0.00 0.00 0.00 0.00 0.00 0.00 0.00 0.00 0.00 0.00 0.00 0.00 0.00 0.00 0.00 0.00 0.00 0.00 0.00 0.00 0.00 0.00 0.00 0.00 0.00 0.00 0.00 0.00 0.00 0.00
0.00 0.00 0.00 0.00 0.00 0.00 0.00 0.00 0.00 0.00 0.00 0.00 0.00 0.00 0.00 0.00 0.00 0.00 0.00 0.00 0.00 0.00 0.00 0.00 0.00 0.00 0.00 0.00 0.00 0.00 0.00 0.00 0.00 0.00 0.00 0.00 0.00 0.00 0.00 0.00 0.00 0.00 0.00
0.00 0.00 0.00 0.00 0.00 0.00 0.00 0.00 0.00 0.00 0.00 0.00 0.00 0.00 0.00 0.00 0.00 0.00 0.00 0.00 0.00 0.00 0.00 0.00 0.00 0.00 0.00 0.00 0.00 0.00 0.00 0.00 0.00 0.00 0.00 0.00 0.00 0.00 0.00 0.00 0.00 0.00 0.00
0.00 0.00 0.00 0.00 0.00 0.00 0.00 0.00 0.00 0.00 0.00 0.00 0.00 0.00 0.00 0.00 0.00 0.00 0.00 0.00 0.00 0.00 0.00 0.00 0.00 0.00 0.00 0.00 0.00 0.00 0.00 0.00 0.00 0.00 0.00 0.00 0.00 0.00 0.00 0.00 0.00 0.00 0.00
MSLP
1020.88 1021.07 1021.35 1021.59 1021.83 1021.95 1022.04 1021.98 1021.86 1021.78 1021.71 1021.68 1021.73 1021.77 1021.65 1021.60 1021.47 1021.26 1021.12 1020.97 1020.99 1020.98 1020.89 1020.82 1020.74 1020.72 1020.74 1020.71 1020.72 1020.75 1020.85 1020.80 1020.78 1019.78 1019.10 1018.09 1017.62 1017.02 1016.33 1015.82 1015.30 1014.93 1014.46
1020.62 1020.89 1021.24 1021.53 1021.72 1021.84 1021.96 1021.84 1021.62 1021.71 1021.75 1021.52 1021.69 1021.87 1021.87 1021.80 1021.74 1021.58 1021.37 1021.19 1021.13 1021.08 1020.98 1020.89 1020.76 1020.62 1020.47 1020.41 1020.50 1020.61 1020.62 1020.55 1020.74 1020.20 1019.10 1018.19 1017.56 1016.81 1016.48 1016.05 1015.31 1014.70 1014.33
1020.45 1020.83 1021.20 1021.50 1021.65 1021.74 1021.75 1021.68 1021.58 1021.63 1021.74 1021.64 1021.72 1021.85 1021.89 1021.87 1021.82 1021.69 1021.53 1021.33 1021.22 1021.10 1020.96 1020.91 1020.72 1020.57 1020.48 1020.39 1020.28 1020.28 1020.14 1020.00 1020.19 1020.19 1019.55 1018.42 1017.56 1016.71 1016.32 1015.79 1015.32 1014.82 1014.16
1020.20 1020.78 1021.11 1021.30 1021.37 1021.45 1021.52 1021.48 1021.44 1021.55 1021.68 1021.83 1021.71 1021.83 1021.86 1021.82 1021.74 1021.61 1021.46 1021.25 1021.10 1020.97 1020.87 1020.65 1020.34 1020.16 1020.11 1019.96 1019.90 1019.75 1019.78 1019.65 1019.44 1019.51 1019.16 1018.42 1017.69 1016.65 1016.40 1016.07 1015.32 1014.72 1014.17
1020.02 1020.60 1020.86 1020.85 1021.08 1021.26 1021.29 1021.27 1021.37 1021.52 1021.53 1021.67 1021.78 1021.81 1021.82 1021.70 1021.58 1021.41 1021.27 1021.16 1021.09 1020.83 1020.51 1020.35 1020.06 1019.74 1019.53 1019.47 1019.48 1019.28 1019.26 1019.30 1018.99 1018.89 1018.75 1018.33 1017.69 1017.02 1016.64 1016.05 1015.58 1014.75 1013.97
1019.75 1020.21 1020.43 1020.64 1020.84 1020.98 1021.12 1021.18 1021.26 1021.38 1021.58 1021.69 1021.75 1021.71 1021.66 1021.50 1021.24 1021.16 1021.04 1020.97 1020.84 1020.75 1020.57 1020.04 1019.78 1019.38 1018.96 1018.89 1018.82 1018.90 1018.77 1018.58 1018.45 1018.63 1018.36 1018.09 1017.43 1016.74 1016.12 1015.78 1015.25 1014.67 1013.66
1019.48 1019.93 1020.14 1020.37 1020.62 1020.70 1020.96 1021.16 1021.26 1021.45 1021.51 1021.60 1021.66 1021.60 1021.47 1021.25 1021.01 1020.82 1020.70 1020.71 1020.57 1020.47 1020.17 1019.86 1019.55 1019.11 1018.81 1018.57 1018.53 1018.44 1018.15 1017.91 1017.77 1017.73 1017.76 1017.51 1016.87 1016.23 1015.96 1015.40 1014.94 1014.60 1013.94
1019.37 1019.67 1019.85 1020.15 1020.34 1020.65 1020.97 1021.22 1021.20 1021.37 1021.49 1021.57 1021.49 1021.34 1021.19 1020.85 1020.69 1020.45 1020.26 1020.28 1020.27 1019.86 1019.50 1019.66 1019.55 1018.91 1018.30 1018.22 1018.22 1018.18 1017.80 1017.53 1017.22 1017.08 1017.04 1016.73 1016.25 1015.82 1015.53 1015.10 1014.68 1014.29 1013.55
1019.05 1019.38 1019.69 1019.93 1020.29 1020.62 1021.02 1021.21 1021.21 1021.34 1021.41 1021.39 1021.28 1021.13 1021.00 1020.47 1020.18 1019.96 1019.94 1019.85 1019.65 1019.20 1018.97 1019.27 1018.99 1018.60 1018.09 1017.94 1018.10 1018.06 1017.72 1017.09 1016.79 1016.75 1016.49 1016.08 1015.77 1015.31 1014.96 1014.70 1014.40 1014.05 1013.27
1018.79 1019.12 1019.37 1019.70 1020.06 1020.62 1020.77 1021.05 1021.07 1021.08 1021.14 1021.13 1020.98 1020.81 1020.63 1020.26 1019.59 1019.38 1019.46 1019.40 1019.39 1019.02 1018.77 1018.64 1018.48 1018.33 1018.10 1017.88 1017.91 1017.87 1017.57 1017.02 1016.95 1016.66 1016.10 1015.61 1015.30 1014.93 1014.62 1014.52 1014.28 1013.79 1013.26
1018.58 1018.97 1019.34 1019.63 1019.89 1020.19 1020.62 1020.84 1020.83 1021.01 1021.06 1021.05 1020.92 1020.46 1020.18 1019.78 1019.25 1019.05 1018.87 1018.88 1019.02 1019.11 1019.02 1018.69 1018.31 1018.09 1017.88 1017.63 1017.52 1017.34 1017.27 1017.16 1016.98 1016.59 1015.96 1015.49 1015.12 1014.76 1014.44 1014.10 1013.85 1013.52 1013.05
1018.54 1019.08 1019.45 1019.63 1019.90 1020.24 1020.54 1020.65 1020.78 1020.99 1021.15 1020.99 1020.82 1020.28 1019.59 1019.31 1019.20 1018.86 1018.69 1018.71 1018.80 1018.88 1018.91 1018.75 1018.43 1018.09 1017.78 1017.49 1017.25 1017.13 1017.27 1017.11 1016.81 1016.24 1015.72 1015.30 1014.91 1014.60 1014.19 1013.80 1013.34 1012.92 1012.52
1018.49 1019.02 1019.36 1019.59 1019.89 1020.17 1020.52 1020.77 1020.88 1020.90 1020.87 1020.59 1020.50 1020.05 1019.49 1019.03 1019.03 1019.03 1019.05 1018.90 1018.86 1018.84 1018.82 1018.70 1018.46 1018.22 1017.92 1017.60 1017.44 1017.48 1017.29 1017.03 1016.76 1016.15 1015.64 1015.20 1014.87 1014.44 1013.95 1013.44 1012.91 1012.39 1011.85
1018.51 1019.14 1019.40 1019.77 1020.08 1020.18 1020.26 1020.37 1020.56 1020.40 1020.41 1020.18 1019.85 1019.57 1019.24 1019.03 1019.15 1019.21 1019.23 1019.12 1019.01 1018.93 1018.79 1018.68 1018.64 1018.41 1018.22 1018.10 1017.81 1017.53 1017.22 1016.95 1016.54 1016.00 1015.61 1015.10 1014.62 1014.15 1013.66 1013.17 1012.64 1012.06 1011.55
1018.51 1019.17 1019.53 1019.86 1020.09 1020.20 1020.27 1020.20 1020.19 1019.78 1019.72 1019.50 1019.09 1019.21 1019.14 1019.23 1019.26 1019.37 1019.38 1019.32 1019.26 1019.10 1018.92 1018.98 1019.05 1019.06 1018.83 1018.54 1018.08 1017.57 1017.07 1016.61 1016.21 1015.86 1015.51 1015.03 1014.49 1013.96 1013.41 1012.91 1012.48 1011.97 1011.46
1018.49 1018.95 1019.38 1019.78 1020.00 1020.08 1020.02 1019.81 1019.64 1019.42 1019.25 1018.82 1018.76 1019.09 1019.14 1019.09 1019.31 1019.44 1019.45 1019.49 1019.40 1019.28 1019.56 1019.82 1019.77 1019.51 1019.08 1018.50 1018.02 1017.47 1016.89 1016.40 1016.11 1015.75 1015.33 1014.92 1014.45 1013.92 1013.36 1012.70 1012.22 1011.72 1011.15
1018.42 1018.86 1019.10 1019.44 1019.79 1019.84 1019.82 1019.75 1019.88 1019.58 1019.43 1019.40 1019.10 1019.14 1019.31 1019.59 1019.68 1019.81 1019.87 1019.80 1019.75 1019.69 1020.18 1020.22 1020.07 1019.60 1018.98 1018.42 1017.94 1017.47 1016.90 1016.44 1016.10 1015.71 1015.29 1014.79 1014.35 1013.79 1013.29 1012.67 1012.04 1011.50 1010.89
1018.43 1018.92 1019.24 1019.28 1019.50 1019.62 1019.48 1019.33 1019.58 1019.79 1020.14 1020.12 1020.00 1019.87 1019.96 1020.05 1020.16 1020.28 1020.23 1020.06 1020.43 1020.35 1020.60 1020.48 1020.13 1019.55 1018.91 1018.35 1017.90 1017.46 1016.92 1016.45 1016.08 1015.72 1015.16 1014.76 1014.32 1013.85 1013.21 1012.58 1011.99 1011.50 1010.84
1018.29 1018.60 1018.99 1019.17 1019.35 1019.15 1019.09 1019.17 1019.37 1019.85 1020.31 1020.57 1020.76 1020.65 1020.66 1020.59 1020.64 1020.69 1020.63 1020.93 1021.09 1021.00 1020.92 1020.61 1020.13 1019.51 1018.91 1018.47 1018.05 1017.57 1017.11 1016.66 1016.28 1015.75 1015.18 1014.75 1014.23 1013.75 1013.10 1012.55 1011.86 1011.24 1010.70
1018.02 1018.18 1018.56 1018.93 1018.97 1018.95 1019.11 1019.48 1019.84 1020.21 1020.55 1020.86 1021.18 1021.33 1021.24 1021.08 1021.42 1021.61 1021.43 1021.34 1021.24 1021.22 1021.02 1020.69 1020.16 1019.58 1019.07 1018.55 1018.17 1017.81 1017.37 1016.78 1016.32 1015.79 1015.28 1014.74 1014.15 1013.62 1012.98 1012.30 1011.65 1011.06 1010.36
1018.12 1018.17 1018.45 1018.57 1018.77 1018.94 1019.37 1019.77 1020.17 1020.50 1020.92 1021.36 1021.68 1021.77 1021.66 1021.90 1022.16 1022.11 1021.89 1021.52 1021.45 1021.36 1021.16 1020.84 1020.33 1019.73 1019.18 1018.75 1018.42 1018.03 1017.52 1016.87 1016.42 1015.89 1015.30 1014.72 1014.15 1013.41 1012.78 1012.10 1011.41 1010.73 1010.06
1017.96 1017.97 1018.09 1018.30 1018.59 1019.14 1019.61 1019.99 1020.49 1020.93 1021.41 1021.80 1022.20 1022.24 1022.11 1022.27 1022.35 1022.26 1021.96 1021.78 1021.65 1021.50 1021.28 1021.02 1020.52 1019.89 1019.46 1019.10 1018.73 1018.31 1017.77 1017.19 1016.59 1015.99 1015.39 1014.78 1014.11 1013.33 1012.60 1011.88 1011.18 1010.43 1009.64
1017.47 1017.62 1017.90 1018.35 1018.85 1019.41 1019.98 1020.53 1021.03 1021.47 1021.92 1022.27 1022.47 1022.61 1022.65 1022.71 1022.63 1022.40 1022.17 1021.96 1021.83 1021.59 1021.36 1021.04 1020.64 1019.96 1019.59 1019.28 1018.93 1018.62 1018.17 1017.53 1016.96 1016.35 1015.53 1014.72 1013.96 1013.15 1012.39 1011.61 1010.82 1010.01 1009.25
1017.33 1017.58 1018.12 1018.70 1019.26 1019.80 1020.30 1020.91 1021.48 1021.91 1022.32 1022.68 1022.90 1023.06 1023.12 1023.04 1022.91 1022.72 1022.49 1022.26 1021.97 1021.79 1021.51 1021.19 1020.72 1020.07 1019.73 1019.40 1018.98 1018.62 1018.13 1017.62 1016.93 1016.11 1015.45 1014.70 1013.79 1012.85 1012.08 1011.20 1010.33 1009.49 1008.83
1017.58 1018.04 1018.65 1019.18 1019.86 1020.45 1021.04 1021.58 1022.04 1022.41 1022.77 1023.07 1023.32 1023.41 1023.41 1023.39 1023.32 1023.19 1022.97 1022.63 1022.37 1022.09 1021.75 1021.39 1020.96 1020.23 1019.71 1019.43 1019.03 1018.55 1017.90 1017.27 1016.61 1015.86 1015.01 1014.25 1013.49 1012.59 1011.71 1010.91 1010.08 1009.24 1008.51
1018.18 1018.56 1019.20 1019.71 1020.41 1020.96 1021.59 1022.17 1022.63 1022.94 1023.31 1023.53 1023.65 1023.69 1023.77 1023.83 1023.79 1023.62 1023.37 1023.03 1022.76 1022.43 1022.02 1021.61 1021.16 1020.56 1019.97 1019.47 1019.06 1018.45 1017.73 1017.00 1016.27 1015.51 1014.78 1013.85 1013.20 1012.40 1011.63 1010.84 1010.09 1009.42 1008.77
Thickness
5599 5593 5585 5578 5571 5565 5559 5554 5552 5548 5544 5542 5537 5533 5530 5527 5525 5523 5521 5518 5515 5512 5509 5506 5503 5498 5492 5487 5481 5475 5469 5463 5457 5457 5454 5455 5451 5449 5448 5445 5443 5442 5441
5595 5588 5580 5572 5566 5560 5554 5550 5548 5544 5539 5538 5534 5529 5525 5522 5520 5517 5516 5514 5509 5507 5504 5500 5496 5492 5486 5481 5473 5465 5458 5451 5443 5440 5439 5437 5433 5430 5426 5424 5423 5423 5425
5590 5582 5574 5567 5561 5556 5551 5546 5543 5540 5535 5533 5530 5526 5522 5519 5515 5512 5510 5508 5505 5501 5497 5492 5487 5482 5477 5470 5464 5457 5450 5443 5432 5422 5418 5416 5414 5412 5411 5409 5409 5411 5414
5587 5577 5570 5564 5559 5553 5547 5543 5539 5535 5530 5526 5525 5521 5518 5514 5510 5508 5506 5503 5499 5496 5492 5487 5483 5477 5470 5463 5456 5450 5442 5432 5424 5413 5406 5402 5399 5400 5397 5396 5400 5402 5404
5583 5574 5568 5562 5555 5549 5544 5540 5534 5530 5526 5522 5519 5515 5512 5509 5506 5503 5501 5498 5493 5490 5487 5483 5478 5473 5467 5458 5449 5442 5435 5423 5416 5408 5401 5396 5393 5392 5390 5389 5388 5393 5397
5580 5572 5565 5559 5552 5546 5540 5536 5531 5526 5520 5517 5513 5511 5507 5505 5503 5500 5498 5493 5489 5484 5479 5475 5470 5467 5462 5455 5446 5435 5427 5419 5411 5400 5394 5388 5388 5386 5386 5383 5385 5387 5391
5577 5569 5562 5556 5549 5543 5536 5531 5527 5521 5516 5513 5509 5506 5504 5502 5501 5498 5496 5490 5485 5479 5476 5471 5465 5461 5455 5448 5436 5427 5422 5415 5408 5400 5390 5383 5385 5384 5381 5382 5381 5377 5378
5573 5566 5559 5552 5546 5538 5531 5525 5522 5517 5513 5508 5506 5504 5501 5501 5500 5498 5494 5489 5481 5478 5474 5465 5459 5454 5450 5443 5432 5422 5417 5411 5405 5398 5389 5382 5378 5377 5377 5376 5376 5374 5376
5571 5563 5555 5549 5542 5534 5527 5521 5517 5512 5509 5505 5503 5500 5498 5500 5499 5497 5491 5487 5481 5477 5471 5461 5457 5451 5445 5437 5426 5419 5414 5410 5403 5394 5386 5379 5375 5375 5376 5375 5373 5372 5376
5567 5560 5553 5545 5538 5530 5524 5518 5514 5510 5507 5503 5501 5498 5497 5497 5499 5496 5490 5484 5477 5474 5466 5459 5453 5446 5439 5430 5421 5415 5410 5407 5399 5391 5387 5383 5380 5379 5376 5374 5372 5373 5375
5564 5556 5548 5541 5535 5529 5521 5515 5512 5507 5503 5499 5497 5497 5498 5498 5498 5494 5489 5483 5475 5466 5459 5454 5448 5441 5433 5425 5419 5414 5408 5401 5394 5388 5387 5385 5382 5379 5378 5377 5376 5375 5376
5559 5551 5543 5537 5531 5524 5518 5513 5508 5502 5498 5496 5494 5497 5499 5498 5494 5490 5486 5478 5470 5462 5455 5447 5441 5435 5428 5422 5417 5412 5404 5397 5390 5389 5388 5385 5383 5381 5381 5380 5380 5380 5379
5556 5547 5540 5533 5527 5520 5514 5509 5503 5500 5496 5496 5495 5495 5496 5496 5491 5485 5477 5471 5464 5457 5449 5442 5435 5428 5421 5415 5411 5405 5399 5393 5388 5388 5387 5385 5384 5383 5383 5384 5383 5384 5385
5551 5542 5536 5529 5521 5516 5512 5507 5502 5499 5495 5495 5496 5496 5494 5491 5484 5477 5471 5463 5457 5451 5443 5436 5427 5420 5412 5406 5403 5400 5396 5391 5388 5388 5386 5386 5386 5386 5386 5386 5387 5389 5390
5547 5537 5531 5523 5517 5513 5508 5505 5502 5501 5499 5498 5500 5494 5490 5484 5479 5471 5464 5457 5449 5443 5438 5428 5418 5408 5401 5398 5397 5396 5395 5391 5389 5387 5386 5387 5388 5389 5389 5390 5390 5391 5393
5543 5535 5527 5520 5514 5510 5506 5504 5503 5499 5498 5499 5496 5491 5485 5480 5472 5465 5457 5450 5444 5438 5427 5415 5406 5399 5396 5395 5396 5396 5394 5392 5389 5388 5389 5389 5389 5390 5391 5392 5393 5395 5397
5539 5532 5527 5520 5511 5508 5505 5500 5497 5496 5494 5491 5490 5486 5480 5472 5464 5456 5449 5443 5436 5430 5416 5405 5398 5395 5393 5395 5395 5394 5394 5391 5389 5389 5390 5391 5391 5392 5392 5394 5396 5397 5399
5536 5528 5523 5518 5511 5506 5502 5500 5495 5492 5487 5483 5480 5476 5470 5464 5457 5450 5443 5436 5426 5417 5407 5400 5395 5391 5392 5394 5393 5392 5391 5390 5390 5390 5391 5391 5392 5392 5394 5395 5397 5397 5399
5534 5527 5519 5514 5508 5505 5502 5498 5494 5488 5481 5475 5470 5466 5461 5456 5449 5442 5436 5425 5417 5408 5401 5395 5391 5389 5390 5389 5389 5389 5389 5388 5387 5389 5391 5391 5392 5393 5395 5396 5397 5398 5399
5532 5527 5519 5512 5508 5503 5498 5493 5488 5482 5475 5469 5462 5457 5452 5448 5438 5430 5424 5418 5411 5402 5395 5390 5386 5386 5386 5387 5386 5386 5386 5387 5387 5388 5390 5391 5393 5393 5395 5397 5399 5400 5403
5527 5523 5516 5511 5506 5501 5494 5489 5482 5477 5470 5462 5455 5448 5443 5437 5428 5422 5417 5412 5404 5397 5390 5385 5381 5382 5384 5383 5383 5383 5384 5387 5387 5387 5389 5390 5392 5394 5396 5398 5400 5402 5404
5524 5521 5516 5511 5504 5497 5489 5483 5477 5470 5462 5455 5447 5441 5436 5430 5423 5417 5412 5405 5399 5392 5386 5381 5378 5379 5379 5379 5379 5381 5382 5384 5385 5387 5388 5389 5391 5394 5396 5398 5400 5402 5407
5526 5522 5516 5507 5498 5491 5483 5477 5470 5462 5455 5448 5441 5436 5431 5424 5418 5412 5407 5401 5394 5387 5381 5377 5375 5377 5377 5377 5377 5378 5379 5381 5382 5384 5387 5390 5392 5394 5397 5399 5402 5405 5409
5524 5519 5509 5498 5492 5484 5478 5471 5462 5456 5449 5442 5435 5430 5423 5418 5413 5407 5401 5395 5389 5383 5377 5374 5373 5374 5375 5375 5377 5378 5379 5381 5383 5386 5387 5389 5393 5396 5399 5401 5405 5410 5411
5517 5510 5501 5492 5485 5476 5469 5462 5456 5449 5442 5436 5430 5424 5419 5413 5408 5402 5396 5390 5384 5378 5373 5371 5371 5373 5374 5375 5376 5379 5381 5384 5385 5387 5390 5392 5395 5398 5401 5403 5406 5410 5411
5507 5502 5493 5486 5478 5471 5463 5456 5449 5443 5436 5430 5425 5420 5414 5408 5402 5397 5391 5385 5379 5374 5370 5369 5370 5372 5373 5375 5377 5380 5383 5386 5388 5390 5392 5395 5397 5399 5401 5403 5405 5406 5408